Year,Month,Day,Hour,Minute,Value (Times are PST for temperature in C)
2011,07,29,00,00,14.40
2011,07,29,00,01,14.40
2011,07,29,00,02,14.40
2011,07,29,00,03,14.30
2011,07,29,00,04,14.30
2011,07,29,00,05,14.30
2011,07,29,00,06,14.30
2011,07,29,00,07,14.20
2011,07,29,00,08,14.20
2011,07,29,00,09,14.20
2011,07,29,00,10,14.20
2011,07,29,00,11,14.20
2011,07,29,00,12,14.30
2011,07,29,00,13,14.30
2011,07,29,00,14,14.30
2011,07,29,00,15,14.30
2011,07,29,00,16,14.30
2011,07,29,00,17,14.30
2011,07,29,00,18,14.30
2011,07,29,00,19,14.20
2011,07,29,00,20,14.20
2011,07,29,00,21,14.20
2011,07,29,00,22,14.20
2011,07,29,00,23,14.20
2011,07,29,00,24,14.10
2011,07,29,00,25,14.10
2011,07,29,00,26,14.10
2011,07,29,00,27,14.00
2011,07,29,00,28,14.00
2011,07,29,00,29,14.00
2011,07,29,00,30,14.00
2011,07,29,00,31,13.90
2011,07,29,00,32,13.90
2011,07,29,00,33,13.90
2011,07,29,00,34,13.90
2011,07,29,00,35,13.80
2011,07,29,00,36,13.80
2011,07,29,00,37,13.80
2011,07,29,00,38,13.80
2011,07,29,00,39,13.70
2011,07,29,00,40,13.70
2011,07,29,00,41,13.70
2011,07,29,00,42,13.70
2011,07,29,00,43,13.70
2011,07,29,00,44,13.70
2011,07,29,00,45,13.70
2011,07,29,00,46,13.70
2011,07,29,00,47,13.60
2011,07,29,00,48,13.60
2011,07,29,00,49,13.60
2011,07,29,00,50,13.50
2011,07,29,00,51,13.50
2011,07,29,00,52,13.50
2011,07,29,00,53,13.50
2011,07,29,00,54,13.50
2011,07,29,00,55,13.50
2011,07,29,00,56,13.40
2011,07,29,00,57,13.40
2011,07,29,00,58,13.40
2011,07,29,00,59,13.40
2011,07,29,01,00,13.40
2011,07,29,01,01,13.40
2011,07,29,01,02,13.40
2011,07,29,01,03,13.30
2011,07,29,01,04,13.30
2011,07,29,01,05,13.30
2011,07,29,01,06,13.30
2011,07,29,01,07,13.30
2011,07,29,01,08,13.30
2011,07,29,01,09,13.30
2011,07,29,01,10,13.30
2011,07,29,01,11,13.30
2011,07,29,01,12,13.20
2011,07,29,01,13,13.20
2011,07,29,01,14,13.20
2011,07,29,01,15,13.20
2011,07,29,01,16,13.20
2011,07,29,01,17,13.20
2011,07,29,01,18,13.20
2011,07,29,01,19,13.20
2011,07,29,01,20,13.20
2011,07,29,01,21,13.10
2011,07,29,01,22,13.10
2011,07,29,01,23,13.10
2011,07,29,01,24,13.00
2011,07,29,01,25,13.00
2011,07,29,01,26,13.00
2011,07,29,01,27,13.00
2011,07,29,01,28,13.00
2011,07,29,01,29,13.00
2011,07,29,01,30,13.00
2011,07,29,01,31,13.00
2011,07,29,01,32,13.00
2011,07,29,01,33,13.00
2011,07,29,01,34,12.90
2011,07,29,01,35,12.90
2011,07,29,01,36,12.90
2011,07,29,01,37,12.90
2011,07,29,01,38,12.90
2011,07,29,01,39,12.90
2011,07,29,01,40,12.90
2011,07,29,01,41,12.90
2011,07,29,01,42,12.90
2011,07,29,01,43,12.90
2011,07,29,01,44,12.80
2011,07,29,01,45,12.80
2011,07,29,01,46,12.80
2011,07,29,01,47,12.80
2011,07,29,01,48,12.80
2011,07,29,01,49,12.80
2011,07,29,01,50,12.80
2011,07,29,01,51,12.80
2011,07,29,01,52,12.80
2011,07,29,01,53,12.80
2011,07,29,01,54,12.80
2011,07,29,01,55,12.80
2011,07,29,01,56,12.80
2011,07,29,01,57,12.80
2011,07,29,01,58,12.80
2011,07,29,01,59,12.80
2011,07,29,02,00,12.80
2011,07,29,02,01,12.80
2011,07,29,02,02,12.70
2011,07,29,02,03,12.70
2011,07,29,02,04,12.70
2011,07,29,02,05,12.70
2011,07,29,02,06,12.70
2011,07,29,02,07,12.70
2011,07,29,02,08,12.60
2011,07,29,02,09,12.60
2011,07,29,02,10,12.60
2011,07,29,02,11,12.60
2011,07,29,02,12,12.60
2011,07,29,02,13,12.60
2011,07,29,02,14,12.60
2011,07,29,02,15,12.60
2011,07,29,02,16,12.50
2011,07,29,02,17,12.50
2011,07,29,02,18,12.50
2011,07,29,02,19,12.50
2011,07,29,02,20,12.50
2011,07,29,02,21,12.50
2011,07,29,02,22,12.50
2011,07,29,02,23,12.50
2011,07,29,02,24,12.50
2011,07,29,02,25,12.50
2011,07,29,02,26,12.50
2011,07,29,02,27,12.50
2011,07,29,02,28,12.60
2011,07,29,02,29,12.60
2011,07,29,02,30,12.60
2011,07,29,02,31,12.60
2011,07,29,02,32,12.70
2011,07,29,02,33,12.70
2011,07,29,02,34,12.70
2011,07,29,02,35,12.70
2011,07,29,02,36,12.70
2011,07,29,02,37,12.70
2011,07,29,02,38,12.70
2011,07,29,02,39,12.70
2011,07,29,02,40,12.70
2011,07,29,02,41,12.70
2011,07,29,02,42,12.70
2011,07,29,02,43,12.70
2011,07,29,02,44,12.70
2011,07,29,02,45,12.70
2011,07,29,02,46,12.70
2011,07,29,02,47,12.70
2011,07,29,02,48,12.70
2011,07,29,02,49,12.80
2011,07,29,02,50,12.80
2011,07,29,02,51,12.80
2011,07,29,02,52,12.80
2011,07,29,02,53,12.80
2011,07,29,02,54,12.80
2011,07,29,02,55,12.80
2011,07,29,02,56,12.80
2011,07,29,02,57,12.80
2011,07,29,02,58,12.90
2011,07,29,02,59,12.90
2011,07,29,03,00,12.90
2011,07,29,03,01,13.00
2011,07,29,03,02,13.00
2011,07,29,03,03,13.00
2011,07,29,03,04,13.00
2011,07,29,03,05,13.00
2011,07,29,03,06,13.00
2011,07,29,03,07,13.10
2011,07,29,03,08,13.20
2011,07,29,03,09,13.20
2011,07,29,03,10,13.20
2011,07,29,03,11,13.30
2011,07,29,03,12,13.30
2011,07,29,03,13,13.30
2011,07,29,03,14,13.30
2011,07,29,03,15,13.40
2011,07,29,03,16,13.40
2011,07,29,03,17,13.40
2011,07,29,03,18,13.40
2011,07,29,03,19,13.50
2011,07,29,03,20,13.50
2011,07,29,03,21,13.50
2011,07,29,03,22,13.50
2011,07,29,03,23,13.50
2011,07,29,03,24,13.50
2011,07,29,03,25,13.50
2011,07,29,03,26,13.60
2011,07,29,03,27,13.60
2011,07,29,03,28,13.60
2011,07,29,03,29,13.60
2011,07,29,03,30,13.60
2011,07,29,03,31,13.60
2011,07,29,03,32,13.60
2011,07,29,03,33,13.60
2011,07,29,03,34,13.70
2011,07,29,03,35,13.70
2011,07,29,03,36,13.70
2011,07,29,03,37,13.70
2011,07,29,03,38,13.70
2011,07,29,03,39,13.70
2011,07,29,03,40,13.70
2011,07,29,03,41,13.70
2011,07,29,03,42,13.70
2011,07,29,03,43,13.70
2011,07,29,03,44,13.70
2011,07,29,03,45,13.70
2011,07,29,03,46,13.70
2011,07,29,03,47,13.70
2011,07,29,03,48,13.70
2011,07,29,03,49,13.70
2011,07,29,03,50,13.70
2011,07,29,03,51,13.70
2011,07,29,03,52,13.70
2011,07,29,03,53,13.60
2011,07,29,03,54,13.60
2011,07,29,03,55,13.60
2011,07,29,03,56,13.60
2011,07,29,03,57,13.60
2011,07,29,03,58,13.60
2011,07,29,03,59,13.60
2011,07,29,04,00,13.60
2011,07,29,04,01,13.60
2011,07,29,04,02,13.60
2011,07,29,04,03,13.60
2011,07,29,04,04,13.60
2011,07,29,04,05,13.60
2011,07,29,04,06,13.60
2011,07,29,04,07,13.60
2011,07,29,04,08,13.60
2011,07,29,04,09,13.60
2011,07,29,04,10,13.70
2011,07,29,04,11,13.70
2011,07,29,04,12,13.70
2011,07,29,04,13,13.70
2011,07,29,04,14,13.70
2011,07,29,04,15,13.70
2011,07,29,04,16,13.70
2011,07,29,04,17,13.70
2011,07,29,04,18,13.70
2011,07,29,04,19,13.70
2011,07,29,04,20,13.70
2011,07,29,04,21,13.70
2011,07,29,04,22,13.70
2011,07,29,04,23,13.70
2011,07,29,04,24,13.70
2011,07,29,04,25,13.70
2011,07,29,04,26,13.70
2011,07,29,04,27,13.70
2011,07,29,04,28,13.70
2011,07,29,04,29,13.70
2011,07,29,04,30,13.70
2011,07,29,04,31,13.70
2011,07,29,04,32,13.70
2011,07,29,04,33,13.80
2011,07,29,04,34,13.80
2011,07,29,04,35,13.80
2011,07,29,04,36,13.80
2011,07,29,04,37,13.80
2011,07,29,04,38,13.80
2011,07,29,04,39,13.80
2011,07,29,04,40,13.80
2011,07,29,04,41,13.80
2011,07,29,04,42,13.80
2011,07,29,04,43,13.70
2011,07,29,04,44,13.70
2011,07,29,04,45,13.70
2011,07,29,04,46,13.70
2011,07,29,04,47,13.70
2011,07,29,04,48,13.70
2011,07,29,04,49,13.70
2011,07,29,04,50,13.70
2011,07,29,04,51,13.70
2011,07,29,04,52,13.70
2011,07,29,04,53,13.70
2011,07,29,04,54,13.70
2011,07,29,04,55,13.70
2011,07,29,04,56,13.70
2011,07,29,04,57,13.70
2011,07,29,04,58,13.70
2011,07,29,04,59,13.70
2011,07,29,05,00,13.70
2011,07,29,05,01,13.60
2011,07,29,05,02,13.60
2011,07,29,05,03,13.60
2011,07,29,05,04,13.60
2011,07,29,05,05,13.60
2011,07,29,05,06,13.60
2011,07,29,05,07,13.60
2011,07,29,05,08,13.60
2011,07,29,05,09,13.60
2011,07,29,05,10,13.60
2011,07,29,05,11,13.60
2011,07,29,05,12,13.60
2011,07,29,05,13,13.50
2011,07,29,05,14,13.50
2011,07,29,05,15,13.50
2011,07,29,05,16,13.50
2011,07,29,05,17,13.50
2011,07,29,05,18,13.50
2011,07,29,05,19,13.50
2011,07,29,05,20,13.50
2011,07,29,05,21,13.50
2011,07,29,05,22,13.50
2011,07,29,05,23,13.50
2011,07,29,05,24,13.50
2011,07,29,05,25,13.50
2011,07,29,05,26,13.50
2011,07,29,05,27,13.50
2011,07,29,05,28,13.50
2011,07,29,05,29,13.50
2011,07,29,05,30,13.50
2011,07,29,05,31,13.50
2011,07,29,05,32,13.50
2011,07,29,05,33,13.50
2011,07,29,05,34,13.50
2011,07,29,05,35,13.40
2011,07,29,05,36,13.40
2011,07,29,05,37,13.40
2011,07,29,05,38,13.40
2011,07,29,05,39,13.40
2011,07,29,05,40,13.40
2011,07,29,05,41,13.40
2011,07,29,05,42,13.40
2011,07,29,05,43,13.40
2011,07,29,05,44,13.30
2011,07,29,05,45,13.30
2011,07,29,05,46,13.30
2011,07,29,05,47,13.30
2011,07,29,05,48,13.30
2011,07,29,05,49,13.30
2011,07,29,05,50,13.30
2011,07,29,05,51,13.30
2011,07,29,05,52,13.30
2011,07,29,05,53,13.30
2011,07,29,05,54,13.30
2011,07,29,05,55,13.30
2011,07,29,05,56,13.30
2011,07,29,05,57,13.30
2011,07,29,05,58,13.30
2011,07,29,05,59,13.30
2011,07,29,06,00,13.30
2011,07,29,06,01,13.20
2011,07,29,06,02,13.20
2011,07,29,06,03,13.20
2011,07,29,06,04,13.20
2011,07,29,06,05,13.20
2011,07,29,06,06,13.20
2011,07,29,06,07,13.20
2011,07,29,06,08,13.20
2011,07,29,06,09,13.20
2011,07,29,06,10,13.20
2011,07,29,06,11,13.20
2011,07,29,06,12,13.20
2011,07,29,06,13,13.20
2011,07,29,06,14,13.20
2011,07,29,06,15,13.20
2011,07,29,06,16,13.20
2011,07,29,06,17,13.20
2011,07,29,06,18,13.30
2011,07,29,06,19,13.30
2011,07,29,06,20,13.30
2011,07,29,06,21,13.30
2011,07,29,06,22,13.40
2011,07,29,06,23,13.40
2011,07,29,06,24,13.40
2011,07,29,06,25,13.50
2011,07,29,06,26,13.50
2011,07,29,06,27,13.50
2011,07,29,06,28,13.50
2011,07,29,06,29,13.50
2011,07,29,06,30,13.50
2011,07,29,06,31,13.60
2011,07,29,06,32,13.60
2011,07,29,06,33,13.60
2011,07,29,06,34,13.60
2011,07,29,06,35,13.60
2011,07,29,06,36,13.60
2011,07,29,06,37,13.60
2011,07,29,06,38,13.70
2011,07,29,06,39,13.70
2011,07,29,06,40,13.70
2011,07,29,06,41,13.70
2011,07,29,06,42,13.70
2011,07,29,06,43,13.70
2011,07,29,06,44,13.70
2011,07,29,06,45,13.70
2011,07,29,06,46,13.70
2011,07,29,06,47,13.70
2011,07,29,06,48,13.70
2011,07,29,06,49,13.70
2011,07,29,06,50,13.70
2011,07,29,06,51,13.70
2011,07,29,06,52,13.70
2011,07,29,06,53,13.70
2011,07,29,06,54,13.70
2011,07,29,06,55,13.80
2011,07,29,06,56,13.80
2011,07,29,06,57,13.80
2011,07,29,06,58,13.80
2011,07,29,06,59,13.80
2011,07,29,07,00,13.90
2011,07,29,07,01,13.90
2011,07,29,07,02,13.90
2011,07,29,07,03,13.90
2011,07,29,07,04,14.00
2011,07,29,07,05,14.00
2011,07,29,07,06,14.00
2011,07,29,07,07,14.10
2011,07,29,07,08,14.10
2011,07,29,07,09,14.10
2011,07,29,07,10,14.20
2011,07,29,07,11,14.20
2011,07,29,07,12,14.20
2011,07,29,07,13,14.20
2011,07,29,07,14,14.30
2011,07,29,07,15,14.30
2011,07,29,07,16,14.40
2011,07,29,07,17,14.40
2011,07,29,07,18,14.50
2011,07,29,07,19,14.50
2011,07,29,07,20,14.60
2011,07,29,07,21,14.60
2011,07,29,07,22,14.60
2011,07,29,07,23,14.60
2011,07,29,07,24,14.60
2011,07,29,07,25,14.60
2011,07,29,07,26,14.70
2011,07,29,07,27,14.70
2011,07,29,07,28,14.70
2011,07,29,07,29,14.70
2011,07,29,07,30,14.80
2011,07,29,07,31,14.80
2011,07,29,07,32,14.80
2011,07,29,07,33,14.80
2011,07,29,07,34,14.80
2011,07,29,07,35,14.80
2011,07,29,07,36,14.80
2011,07,29,07,37,14.90
2011,07,29,07,38,14.90
2011,07,29,07,39,14.90
2011,07,29,07,40,14.90
2011,07,29,07,41,15.00
2011,07,29,07,42,15.00
2011,07,29,07,43,15.10
2011,07,29,07,44,15.10
2011,07,29,07,45,15.10
2011,07,29,07,46,15.20
2011,07,29,07,47,15.20
2011,07,29,07,48,15.30
2011,07,29,07,49,15.30
2011,07,29,07,50,15.30
2011,07,29,07,51,15.40
2011,07,29,07,52,15.50
2011,07,29,07,53,15.50
2011,07,29,07,54,15.60
2011,07,29,07,55,15.60
2011,07,29,07,56,15.70
2011,07,29,07,57,15.70
2011,07,29,07,58,15.80
2011,07,29,07,59,15.80
2011,07,29,08,00,15.90
2011,07,29,08,01,15.90
2011,07,29,08,02,16.10
2011,07,29,08,03,16.10
2011,07,29,08,04,16.10
2011,07,29,08,05,16.20
2011,07,29,08,06,16.20
2011,07,29,08,07,16.30
2011,07,29,08,08,16.30
2011,07,29,08,09,16.30
2011,07,29,08,10,16.30
2011,07,29,08,11,16.30
2011,07,29,08,12,16.40
2011,07,29,08,13,16.40
2011,07,29,08,14,16.40
2011,07,29,08,15,16.50
2011,07,29,08,16,16.60
2011,07,29,08,17,16.70
2011,07,29,08,18,16.80
2011,07,29,08,19,16.90
2011,07,29,08,20,16.90
2011,07,29,08,21,17.00
2011,07,29,08,22,17.00
2011,07,29,08,23,17.10
2011,07,29,08,24,17.10
2011,07,29,08,25,17.20
2011,07,29,08,26,17.20
2011,07,29,08,27,17.30
2011,07,29,08,28,17.30
2011,07,29,08,29,17.40
2011,07,29,08,30,17.50
2011,07,29,08,31,17.60
2011,07,29,08,32,17.70
2011,07,29,08,33,17.80
2011,07,29,08,34,17.90
2011,07,29,08,35,17.90
2011,07,29,08,36,18.00
2011,07,29,08,37,18.10
2011,07,29,08,38,18.20
2011,07,29,08,39,18.30
2011,07,29,08,40,18.40
2011,07,29,08,41,18.50
2011,07,29,08,42,18.50
2011,07,29,08,43,18.60
2011,07,29,08,44,18.70
2011,07,29,08,45,18.80
2011,07,29,08,46,18.90
2011,07,29,08,47,18.90
2011,07,29,08,48,19.00
2011,07,29,08,49,19.10
2011,07,29,08,50,19.10
2011,07,29,08,51,19.20
2011,07,29,08,52,19.30
2011,07,29,08,53,19.40
2011,07,29,08,54,19.50
2011,07,29,08,55,19.50
2011,07,29,08,56,19.50
2011,07,29,08,57,19.60
2011,07,29,08,58,19.60
2011,07,29,08,59,19.70
2011,07,29,09,00,19.70
2011,07,29,09,01,19.80
2011,07,29,09,02,19.90
2011,07,29,09,03,19.90
2011,07,29,09,04,20.10
2011,07,29,09,05,20.10
2011,07,29,09,06,20.20
2011,07,29,09,07,20.20
2011,07,29,09,08,20.20
2011,07,29,09,09,20.30
2011,07,29,09,10,20.40
2011,07,29,09,11,20.40
2011,07,29,09,12,20.40
2011,07,29,09,13,20.50
2011,07,29,09,14,20.50
2011,07,29,09,15,20.60
2011,07,29,09,16,20.60
2011,07,29,09,17,20.70
2011,07,29,09,18,20.70
2011,07,29,09,19,20.60
2011,07,29,09,20,20.50
2011,07,29,09,21,20.40
2011,07,29,09,22,20.30
2011,07,29,09,23,20.30
2011,07,29,09,24,20.30
2011,07,29,09,25,20.30
2011,07,29,09,26,20.20
2011,07,29,09,27,20.20
2011,07,29,09,28,20.20
2011,07,29,09,29,20.00
2011,07,29,09,30,19.90
2011,07,29,09,31,19.80
2011,07,29,09,32,19.80
2011,07,29,09,33,19.70
2011,07,29,09,34,19.70
2011,07,29,09,35,19.70
2011,07,29,09,36,19.80
2011,07,29,09,37,19.90
2011,07,29,09,38,20.10
2011,07,29,09,39,20.20
2011,07,29,09,40,20.30
2011,07,29,09,41,20.40
2011,07,29,09,42,20.50
2011,07,29,09,43,20.40
2011,07,29,09,44,20.30
2011,07,29,09,45,20.30
2011,07,29,09,46,20.40
2011,07,29,09,47,20.40
2011,07,29,09,48,20.40
2011,07,29,09,49,20.20
2011,07,29,09,50,20.00
2011,07,29,09,51,19.90
2011,07,29,09,52,20.00
2011,07,29,09,53,20.00
2011,07,29,09,54,20.10
2011,07,29,09,55,20.20
2011,07,29,09,56,20.20
2011,07,29,09,57,20.30
2011,07,29,09,58,20.40
2011,07,29,09,59,20.50
2011,07,29,10,00,20.60
2011,07,29,10,01,20.70
2011,07,29,10,02,20.80
2011,07,29,10,03,20.80
2011,07,29,10,04,20.80
2011,07,29,10,05,20.80
2011,07,29,10,06,20.80
2011,07,29,10,07,20.80
2011,07,29,10,08,20.90
2011,07,29,10,09,21.00
2011,07,29,10,10,21.10
2011,07,29,10,11,21.20
2011,07,29,10,12,21.20
2011,07,29,10,13,21.20
2011,07,29,10,14,21.00
2011,07,29,10,15,20.90
2011,07,29,10,16,20.80
2011,07,29,10,17,20.70
2011,07,29,10,18,20.50
2011,07,29,10,19,20.40
2011,07,29,10,20,20.20
2011,07,29,10,21,20.20
2011,07,29,10,22,20.10
2011,07,29,10,23,20.00
2011,07,29,10,24,19.90
2011,07,29,10,25,20.00
2011,07,29,10,26,20.10
2011,07,29,10,27,20.10
2011,07,29,10,28,20.20
2011,07,29,10,29,20.20
2011,07,29,10,30,20.20
2011,07,29,10,31,20.20
2011,07,29,10,32,20.20
2011,07,29,10,33,20.20
2011,07,29,10,34,20.20
2011,07,29,10,35,20.10
2011,07,29,10,36,20.00
2011,07,29,10,37,19.90
2011,07,29,10,38,20.00
2011,07,29,10,39,20.10
2011,07,29,10,40,20.20
2011,07,29,10,41,20.20
2011,07,29,10,42,20.20
2011,07,29,10,43,20.30
2011,07,29,10,44,20.30
2011,07,29,10,45,20.30
2011,07,29,10,46,20.30
2011,07,29,10,47,20.40
2011,07,29,10,48,20.40
2011,07,29,10,49,20.40
2011,07,29,10,50,20.50
2011,07,29,10,51,20.50
2011,07,29,10,52,20.50
2011,07,29,10,53,20.40
2011,07,29,10,54,20.40
2011,07,29,10,55,20.40
2011,07,29,10,56,20.40
2011,07,29,10,57,20.40
2011,07,29,10,58,20.50
2011,07,29,10,59,20.50
2011,07,29,11,00,20.60
2011,07,29,11,01,20.70
2011,07,29,11,02,20.60
2011,07,29,11,03,20.70
2011,07,29,11,04,20.70
2011,07,29,11,05,20.80
2011,07,29,11,06,20.80
2011,07,29,11,07,20.90
2011,07,29,11,08,21.00
2011,07,29,11,09,21.00
2011,07,29,11,10,21.20
2011,07,29,11,11,21.20
2011,07,29,11,12,21.20
2011,07,29,11,13,21.10
2011,07,29,11,14,21.20
2011,07,29,11,15,21.30
2011,07,29,11,16,21.30
2011,07,29,11,17,21.30
2011,07,29,11,18,21.40
2011,07,29,11,19,21.60
2011,07,29,11,20,21.60
2011,07,29,11,21,21.70
2011,07,29,11,22,21.80
2011,07,29,11,23,21.80
2011,07,29,11,24,21.80
2011,07,29,11,25,21.90
2011,07,29,11,26,21.90
2011,07,29,11,27,21.90
2011,07,29,11,28,21.80
2011,07,29,11,29,21.70
2011,07,29,11,30,21.70
2011,07,29,11,31,21.70
2011,07,29,11,32,21.70
2011,07,29,11,33,21.70
2011,07,29,11,34,21.70
2011,07,29,11,35,21.70
2011,07,29,11,36,21.70
2011,07,29,11,37,21.60
2011,07,29,11,38,21.70
2011,07,29,11,39,21.80
2011,07,29,11,40,21.90
2011,07,29,11,41,22.00
2011,07,29,11,42,22.00
2011,07,29,11,43,22.10
2011,07,29,11,44,22.20
2011,07,29,11,45,22.30
2011,07,29,11,46,22.30
2011,07,29,11,47,22.30
2011,07,29,11,48,22.30
2011,07,29,11,49,22.30
2011,07,29,11,50,22.40
2011,07,29,11,51,22.50
2011,07,29,11,52,22.50
2011,07,29,11,53,22.40
2011,07,29,11,54,22.30
2011,07,29,11,55,22.20
2011,07,29,11,56,22.20
2011,07,29,11,57,22.10
2011,07,29,11,58,22.10
2011,07,29,11,59,22.10
2011,07,29,12,00,22.00
2011,07,29,12,01,22.00
2011,07,29,12,02,22.00
2011,07,29,12,03,21.80
2011,07,29,12,04,21.70
2011,07,29,12,05,21.80
2011,07,29,12,06,21.90
2011,07,29,12,07,22.00
2011,07,29,12,08,21.90
2011,07,29,12,09,21.90
2011,07,29,12,10,21.80
2011,07,29,12,11,21.90
2011,07,29,12,12,22.00
2011,07,29,12,13,21.90
2011,07,29,12,14,21.80
2011,07,29,12,15,21.70
2011,07,29,12,16,21.80
2011,07,29,12,17,21.70
2011,07,29,12,18,21.60
2011,07,29,12,19,21.60
2011,07,29,12,20,21.60
2011,07,29,12,21,21.50
2011,07,29,12,22,21.60
2011,07,29,12,23,21.50
2011,07,29,12,24,21.60
2011,07,29,12,25,21.60
2011,07,29,12,26,21.60
2011,07,29,12,27,21.50
2011,07,29,12,28,21.40
2011,07,29,12,29,21.30
2011,07,29,12,30,21.30
2011,07,29,12,31,21.30
2011,07,29,12,32,21.30
2011,07,29,12,33,21.40
2011,07,29,12,34,21.40
2011,07,29,12,35,21.40
2011,07,29,12,36,21.40
2011,07,29,12,37,21.40
2011,07,29,12,38,21.50
2011,07,29,12,39,21.50
2011,07,29,12,40,21.40
2011,07,29,12,41,21.40
2011,07,29,12,42,21.30
2011,07,29,12,43,21.30
2011,07,29,12,44,21.20
2011,07,29,12,45,21.20
2011,07,29,12,46,21.30
2011,07,29,12,47,21.30
2011,07,29,12,48,21.30
2011,07,29,12,49,21.40
2011,07,29,12,50,21.50
2011,07,29,12,51,21.60
2011,07,29,12,52,21.60
2011,07,29,12,53,21.60
2011,07,29,12,54,21.60
2011,07,29,12,55,21.70
2011,07,29,12,56,21.80
2011,07,29,12,57,22.00
2011,07,29,12,58,22.00
2011,07,29,12,59,22.20
2011,07,29,13,00,22.40
2011,07,29,13,01,22.60
2011,07,29,13,02,22.70
2011,07,29,13,03,22.80
2011,07,29,13,04,22.90
2011,07,29,13,05,23.10
2011,07,29,13,06,23.10
2011,07,29,13,07,23.00
2011,07,29,13,08,22.90
2011,07,29,13,09,22.90
2011,07,29,13,10,22.80
2011,07,29,13,11,22.70
2011,07,29,13,12,22.50
2011,07,29,13,13,22.50
2011,07,29,13,14,22.30
2011,07,29,13,15,22.30
2011,07,29,13,16,22.20
2011,07,29,13,17,22.10
2011,07,29,13,18,22.00
2011,07,29,13,19,22.00
2011,07,29,13,20,22.00
2011,07,29,13,21,22.10
2011,07,29,13,22,22.20
2011,07,29,13,23,22.20
2011,07,29,13,24,22.20
2011,07,29,13,25,22.30
2011,07,29,13,26,22.20
2011,07,29,13,27,22.20
2011,07,29,13,28,22.20
2011,07,29,13,29,22.10
2011,07,29,13,30,22.10
2011,07,29,13,31,22.10
2011,07,29,13,32,22.00
2011,07,29,13,33,22.00
2011,07,29,13,34,21.80
2011,07,29,13,35,21.70
2011,07,29,13,36,21.60
2011,07,29,13,37,21.50
2011,07,29,13,38,21.30
2011,07,29,13,39,21.30
2011,07,29,13,40,21.30
2011,07,29,13,41,21.20
2011,07,29,13,42,21.20
2011,07,29,13,43,21.40
2011,07,29,13,44,21.60
2011,07,29,13,45,21.70
2011,07,29,13,46,21.80
2011,07,29,13,47,21.80
2011,07,29,13,48,21.70
2011,07,29,13,49,21.70
2011,07,29,13,50,21.70
2011,07,29,13,51,21.80
2011,07,29,13,52,21.80
2011,07,29,13,53,21.80
2011,07,29,13,54,21.80
2011,07,29,13,55,21.80
2011,07,29,13,56,21.80
2011,07,29,13,57,21.80
2011,07,29,13,58,21.80
2011,07,29,13,59,21.80
2011,07,29,14,00,21.90
2011,07,29,14,01,21.90
2011,07,29,14,02,21.90
2011,07,29,14,03,22.00
2011,07,29,14,04,22.00
2011,07,29,14,05,22.00
2011,07,29,14,06,22.00
2011,07,29,14,07,22.00
2011,07,29,14,08,22.10
2011,07,29,14,09,22.10
2011,07,29,14,10,22.20
2011,07,29,14,11,22.30
2011,07,29,14,12,22.50
2011,07,29,14,13,22.60
2011,07,29,14,14,22.60
2011,07,29,14,15,22.70
2011,07,29,14,16,22.80
2011,07,29,14,17,22.90
2011,07,29,14,18,22.90
2011,07,29,14,19,22.70
2011,07,29,14,20,22.60
2011,07,29,14,21,22.60
2011,07,29,14,22,22.50
2011,07,29,14,23,22.50
2011,07,29,14,24,22.40
2011,07,29,14,25,22.50
2011,07,29,14,26,22.50
2011,07,29,14,27,22.50
2011,07,29,14,28,22.50
2011,07,29,14,29,22.50
2011,07,29,14,30,22.40
2011,07,29,14,31,22.30
2011,07,29,14,32,22.30
2011,07,29,14,33,22.10
2011,07,29,14,34,22.00
2011,07,29,14,35,21.90
2011,07,29,14,36,21.70
2011,07,29,14,37,21.70
2011,07,29,14,38,21.80
2011,07,29,14,39,21.90
2011,07,29,14,40,22.00
2011,07,29,14,41,22.00
2011,07,29,14,42,22.20
2011,07,29,14,43,22.20
2011,07,29,14,44,22.20
2011,07,29,14,45,22.10
2011,07,29,14,46,22.00
2011,07,29,14,47,21.90
2011,07,29,14,48,21.80
2011,07,29,14,49,21.70
2011,07,29,14,50,21.60
2011,07,29,14,51,21.70
2011,07,29,14,52,21.80
2011,07,29,14,53,22.00
2011,07,29,14,54,22.10
2011,07,29,14,55,22.30
2011,07,29,14,56,22.40
2011,07,29,14,57,22.50
2011,07,29,14,58,22.60
2011,07,29,14,59,22.70
2011,07,29,15,00,22.70
2011,07,29,15,01,22.80
2011,07,29,15,02,22.90
2011,07,29,15,03,23.00
2011,07,29,15,04,23.10
2011,07,29,15,05,23.10
2011,07,29,15,06,23.20
2011,07,29,15,07,23.10
2011,07,29,15,08,23.00
2011,07,29,15,09,23.00
2011,07,29,15,10,23.00
2011,07,29,15,11,23.10
2011,07,29,15,12,23.00
2011,07,29,15,13,22.90
2011,07,29,15,14,22.80
2011,07,29,15,15,22.60
2011,07,29,15,16,22.60
2011,07,29,15,17,22.60
2011,07,29,15,18,22.60
2011,07,29,15,19,22.70
2011,07,29,15,20,22.70
2011,07,29,15,21,22.60
2011,07,29,15,22,22.60
2011,07,29,15,23,22.70
2011,07,29,15,24,22.70
2011,07,29,15,25,22.70
2011,07,29,15,26,22.80
2011,07,29,15,27,22.80
2011,07,29,15,28,22.70
2011,07,29,15,29,22.70
2011,07,29,15,30,22.70
2011,07,29,15,31,22.70
2011,07,29,15,32,22.70
2011,07,29,15,33,22.80
2011,07,29,15,34,22.90
2011,07,29,15,35,23.00
2011,07,29,15,36,23.10
2011,07,29,15,37,23.10
2011,07,29,15,38,23.10
2011,07,29,15,39,23.20
2011,07,29,15,40,23.30
2011,07,29,15,41,23.30
2011,07,29,15,42,23.40
2011,07,29,15,43,23.60
2011,07,29,15,44,23.60
2011,07,29,15,45,23.50
2011,07,29,15,46,23.40
2011,07,29,15,47,23.40
2011,07,29,15,48,23.40
2011,07,29,15,49,23.50
2011,07,29,15,50,23.40
2011,07,29,15,51,23.10
2011,07,29,15,52,22.90
2011,07,29,15,53,22.90
2011,07,29,15,54,22.90
2011,07,29,15,55,22.90
2011,07,29,15,56,22.80
2011,07,29,15,57,22.70
2011,07,29,15,58,22.70
2011,07,29,15,59,22.70
2011,07,29,16,00,22.80
2011,07,29,16,01,22.90
2011,07,29,16,02,22.90
2011,07,29,16,03,22.80
2011,07,29,16,04,22.80
2011,07,29,16,05,22.70
2011,07,29,16,06,22.70
2011,07,29,16,07,22.70
2011,07,29,16,08,22.70
2011,07,29,16,09,22.80
2011,07,29,16,10,22.90
2011,07,29,16,11,22.90
2011,07,29,16,12,22.80
2011,07,29,16,13,22.80
2011,07,29,16,14,22.80
2011,07,29,16,15,22.70
2011,07,29,16,16,22.70
2011,07,29,16,17,22.60
2011,07,29,16,18,22.50
2011,07,29,16,19,22.50
2011,07,29,16,20,22.60
2011,07,29,16,21,22.60
2011,07,29,16,22,22.60
2011,07,29,16,23,22.70
2011,07,29,16,24,22.70
2011,07,29,16,25,22.80
2011,07,29,16,26,22.90
2011,07,29,16,27,22.80
2011,07,29,16,28,22.60
2011,07,29,16,29,22.60
2011,07,29,16,30,22.60
2011,07,29,16,31,22.70
2011,07,29,16,32,22.80
2011,07,29,16,33,22.90
2011,07,29,16,34,23.20
2011,07,29,16,35,23.30
2011,07,29,16,36,23.30
2011,07,29,16,37,23.30
2011,07,29,16,38,23.20
2011,07,29,16,39,23.20
2011,07,29,16,40,23.20
2011,07,29,16,41,23.00
2011,07,29,16,42,22.90
2011,07,29,16,43,22.70
2011,07,29,16,44,22.60
2011,07,29,16,45,22.60
2011,07,29,16,46,22.60
2011,07,29,16,47,22.50
2011,07,29,16,48,22.60
2011,07,29,16,49,22.60
2011,07,29,16,50,22.60
2011,07,29,16,51,22.60
2011,07,29,16,52,22.70
2011,07,29,16,53,22.80
2011,07,29,16,54,22.80
2011,07,29,16,55,22.80
2011,07,29,16,56,22.70
2011,07,29,16,57,22.80
2011,07,29,16,58,22.70
2011,07,29,16,59,22.70
2011,07,29,17,00,22.70
2011,07,29,17,01,22.60
2011,07,29,17,02,22.60
2011,07,29,17,03,22.60
2011,07,29,17,04,22.60
2011,07,29,17,05,22.60
2011,07,29,17,06,22.70
2011,07,29,17,07,22.60
2011,07,29,17,08,22.70
2011,07,29,17,09,22.70
2011,07,29,17,10,22.60
2011,07,29,17,11,22.70
2011,07,29,17,12,22.70
2011,07,29,17,13,22.70
2011,07,29,17,14,22.80
2011,07,29,17,15,22.80
2011,07,29,17,16,22.80
2011,07,29,17,17,22.80
2011,07,29,17,18,22.80
2011,07,29,17,19,22.90